W5NEM Weather Reports


time (UTC)temp
F
wind
direction
speed
knots
gust
knots
rain 1hr
in
rain 24hr
in
rain mn
in
humidity
%
barometer
mb
20260510175004 75 295 2.6 7.0 0.00 0.00 0.00 78 1017.9
20260510174004 74 126 2.6 7.0 0.00 0.00 0.00 82 1018.0
20260510173005 73 2 5.2 7.0 0.00 0.00 0.00 83 1018.1
20260510172004 73 351 4.3 7.8 0.00 0.00 0.00 85 1018.3
20260510170004 70 313 2.6 5.2 0.00 0.00 0.00 90 1018.3
20260510165006 70 301 1.7 5.2 0.00 0.00 0.00 92 1018.3
20260510164006 70 329 0.9 6.1 0.00 0.00 0.00 91 1018.2
20260510163006 70 17 3.5 6.1 0.00 0.00 0.00 93 1018.2
20260510161006 70 357 3.5 6.1 0.00 0.00 0.00 94 1018.1
20260510160006 68 40 3.5 6.1 0.00 0.00 0.00 96 1018.0
20260510155006 67 322 2.6 6.1 0.00 0.00 0.00 97 1018.1
20260510153006 68 18 3.5 6.1 0.00 0.00 0.00 96 1017.9
20260510152006 67 267 1.7 7.0 0.00 0.00 0.00 98 1018.0
20260510151006 66 357 2.6 5.2 0.00 0.00 0.00 98 1017.9
20260510145006 65 301 1.7 4.3 0.00 0.00 0.00 100 1018.0
20260510144007 64 311 0.0 4.3 0.00 0.00 0.00 100 1017.9
20260510143006 64 269 2.6 5.2 0.00 0.00 0.00 100 1017.9
20260510142006 64 274 0.0 4.3 0.00 0.00 0.00 100 1017.9
20260510141006 64 287 0.0 0.0 0.00 0.00 0.00 100 1017.8
20260510140005 64 287 0.0 5.2 0.00 0.00 0.00 100 1017.6
20260510135006 63 292 1.7 4.3 0.00 0.00 0.00 100 1017.6
20260510134005 62 226 0.0 0.0 0.00 0.00 0.00 100 1017.7
20260510133008 62 226 0.0 0.0 0.00 0.00 0.00 100 1017.6
20260510132006 61 226 0.0 0.0 0.00 0.00 0.00 100 1017.6
20260510130006 61 226 0.0 0.0 0.00 0.00 0.00 100 1017.6
20260510125006 61 226 0.0 1.7 0.00 0.00 0.00 100 1017.5
20260510124006 61 217 0.9 1.7 0.00 0.00 0.00 100 1017.4
20260510123006 60 20 0.0 1.7 0.00 0.00 0.00 100 1017.4
20260510122005 60 23 0.9 5.2 0.00 0.00 0.00 100 1017.3
20260510121006 60 294 0.0 0.0 0.00 0.00 0.00 100 1017.2
20260510120006 59 294 0.0 0.0 0.00 0.00 0.00 100 1017.0
20260510115006 60 294 0.0 0.0 0.00 0.00 0.00 100 1016.7
20260510114006 59 294 0.0 0.0 0.00 0.00 0.00 100 1016.6
20260510113006 59 294 0.0 0.0 0.00 0.00 0.00 100 1016.5
20260510112006 59 294 0.0 0.0 0.00 0.00 0.00 100 1016.3
20260510110005 59 294 0.0 0.0 0.00 0.00 0.00 100 1016.0
20260510105006 59 294 0.0 0.0 0.00 0.00 0.00 100 1015.8
20260510104005 60 294 0.0 0.0 0.00 0.00 0.00 100 1015.6
20260510103006 60 294 0.0 0.0 0.00 0.00 0.00 100 1015.4
20260510102006 60 294 0.0 0.0 0.00 0.00 0.00 100 1015.3
20260510101006 60 294 0.0 0.0 0.00 0.00 0.00 100 1015.1
20260510100006 60 294 0.0 0.0 0.00 0.00 0.00 100 1014.9
20260510095006 60 294 0.0 0.0 0.00 0.00 0.00 100 1014.9
20260510094005 60 294 0.0 0.0 0.00 0.00 0.00 100 1014.8
20260510093005 60 294 0.0 0.0 0.00 0.00 0.00 100 1014.8
20260510092005 60 294 0.0 0.0 0.00 0.00 0.00 100 1014.8
20260510091006 60 294 0.0 0.0 0.00 0.00 0.00 100 1014.7
20260510090005 60 294 0.0 0.0 0.00 0.00 0.00 100 1014.7
20260510085005 59 294 0.0 0.0 0.00 0.00 0.00 100 1014.6
20260510084006 59 294 0.0 0.0 0.00 0.00 0.00 100 1014.4
20260510083006 60 294 0.0 0.0 0.00 0.00 0.00 100 1014.3
20260510082006 60 294 0.0 0.0 0.00 0.00 0.00 100 1014.4
20260510081006 59 294 0.0 0.0 0.00 0.00 0.00 100 1014.3
20260510080006 59 294 0.0 0.0 0.00 0.00 0.00 100 1014.2
20260510075006 60 294 0.0 0.0 0.00 0.00 0.00 100 1014.1
20260510074006 59 294 0.0 0.0 0.00 0.00 0.00 100 1013.9
20260510073005 60 294 0.0 0.0 0.00 0.00 0.00 100 1013.9
20260510071005 60 294 0.0 0.0 0.00 0.00 0.00 100 1013.8
20260510070005 60 294 0.0 0.0 0.00 0.00 0.00 100 1013.9
20260510065006 61 294 0.0 0.0 0.00 0.00 0.00 100 1013.9
20260510064005 61 294 0.0 0.0 0.00 0.00 0.00 100 1014.0
20260510063005 61 294 0.0 0.0 0.00 0.00 0.00 100 1014.1
20260510062006 61 294 0.0 0.0 0.00 0.00 0.00 100 1014.1
20260510061005 61 294 0.0 0.0 0.00 0.00 0.00 100 1014.1
20260510060006 61 294 0.0 0.0 0.00 0.00 0.00 100 1014.1
20260510053005 61 294 0.0 2.6 0.00 0.00 0.00 100 1014.1
20260510052006 61 284 0.0 0.0 0.00 0.00 0.00 100 1014.1
20260510051005 61 284 0.0 0.0 0.00 0.00 0.00 100 1014.1
20260510050005 62 284 0.0 0.0 0.00 0.00 0.00 100 1014.0
20260510044006 62 301 0.9 1.7 0.00 0.00 0.00 100 1014.1
20260510043006 62 271 0.0 0.0 0.00 0.00 0.00 99 1014.2
20260510042006 63 271 0.0 0.0 0.00 0.00 0.00 99 1014.2
20260510040006 63 260 0.9 0.9 0.00 0.00 0.00 99 1014.3
20260510035006 64 237 0.0 0.0 0.00 0.00 0.00 99 1014.4
20260510034005 64 237 0.9 1.7 0.00 0.00 0.00 99 1014.5
20260510033005 64 268 0.0 0.0 0.00 0.00 0.00 98 1014.5
20260510032006 65 268 0.0 0.0 0.00 0.00 0.00 97 1014.5
20260510031005 65 268 0.0 0.0 0.00 0.00 0.00 97 1014.4
20260510030005 65 268 0.0 0.0 0.00 0.00 0.00 96 1014.4
20260510025006 66 268 0.0 0.0 0.00 0.00 0.00 96 1014.2
20260510024005 66 268 0.0 0.0 0.00 0.00 0.00 96 1014.0
20260510023005 66 268 0.0 5.2 0.00 0.00 0.00 95 1013.9
20260510021005 67 271 0.0 0.0 0.00 0.00 0.00 93 1013.6
20260510020006 67 271 0.0 0.0 0.00 0.00 0.00 93 1013.4
20260510015006 68 271 0.0 0.9 0.00 0.00 0.00 91 1013.2
20260510014006 68 257 0.0 2.6 0.00 0.00 0.00 90 1013.0
20260510013005 69 264 0.9 1.7 0.00 0.00 0.00 89 1012.6
20260510012006 69 270 0.9 2.6 0.00 0.00 0.00 87 1012.5
20260510010008 70 273 0.9 2.6 0.00 0.00 0.00 84 1012.0
20260510004005 71 250 0.9 2.6 0.00 0.00 0.00 82 1011.7
20260510003005 71 305 2.6 5.2 0.00 0.00 0.00 81 1011.6
20260510000005 73 295 1.7 5.2 0.00 0.00 0.00 75 1011.4
20260509235006 74 333 0.9 5.2 0.00 0.00 0.00 74 1011.4
20260509234006 75 69 0.9 5.2 0.00 0.00 0.00 72 1011.4
20260509232005 76 292 1.7 2.6 0.00 0.00 0.00 70 1011.2
20260509231005 75 292 0.0 2.6 0.00 0.00 0.00 71 1011.1
20260509230005 76 287 1.7 2.6 0.00 0.00 0.00 70 1011.2
20260509225006 76 289 0.9 1.7 0.00 0.00 0.00 69 1011.2
20260509224005 76 287 0.0 1.7 0.00 0.00 0.00 68 1011.2
20260509223005 77 295 1.7 2.6 0.00 0.00 0.00 67 1011.1
20260509221005 78 55 0.0 1.7 0.00 0.00 0.00 65 1010.9
20260509220005 78 84 0.9 2.6 0.00 0.00 0.00 64 1010.8
20260509215005 78 78 1.7 4.3 0.00 0.00 0.00 65 1010.9
20260509212005 79 8 0.0 0.0 0.00 0.00 0.00 63 1011.0
20260509211005 79 8 0.9 2.6 0.00 0.00 0.00 63 1011.2
20260509210006 78 136 1.7 4.3 0.00 0.00 0.00 63 1011.2
20260509205005 78 33 0.9 4.3 0.00 0.00 0.00 64 1011.2
20260509204005 78 334 1.7 5.2 0.00 0.00 0.00 65 1011.4
20260509203005 78 320 1.7 4.3 0.00 0.00 0.00 64 1011.3
20260509201005 79 340 0.0 1.7 0.00 0.00 0.00 64 1011.6
20260509200005 78 110 1.7 6.1 0.00 0.00 0.00 65 1011.7
20260509193005 77 18 4.3 7.8 0.00 0.00 0.00 67 1011.9
20260509192005 77 3 3.5 7.0 0.00 0.00 0.00 68 1012.0
20260509191005 76 105 0.9 7.8 0.00 0.00 0.00 69 1012.0
20260509190006 76 30 5.2 7.8 0.00 0.00 0.00 68 1012.0
20260509185005 77 334 4.3 7.8 0.00 0.00 0.00 67 1012.0
20260509184005 78 330 4.3 7.8 0.00 0.00 0.00 66 1012.1
20260509183005 78 328 4.3 7.0 0.00 0.00 0.00 64 1012.2
20260509182005 77 351 4.3 7.8 0.00 0.00 0.00 67 1012.2
20260509181005 76 57 0.9 7.8 0.00 0.00 0.00 68 1012.3
20260509180005 77 28 5.2 7.8 0.00 0.00 0.00 67 1012.5